AMX750 KMCO-MMUN

Flight info

Callsign AMX750
Flight time 1h 33m
Altitude 33000
Route FSHUN4 PLUMR DCT SHEEK Q118 FEMID/N0458F340 DCT KARTR DCT LULLS Y196 CANOA UB879 NOSAT NOSAT1B
Aircraft B738/M-SDE2E3FGHIRWXY/LB1

Departure

Time 2026-04-26 19:47
Airport Orlando International Airport (KMCO)

Arrival

Time 2026-04-26 21:21
Airport Cancún International Airport (MMUN)
Time Latitude Longitude Altitude Speed Heading
2026-04-26 19:23 28.42515 -81.30064 102 ft 0 kts 28°
2026-04-26 19:35 28.42502 -81.30071 102 ft 3 kts 28°
2026-04-26 19:36 28.42486 -81.30081 101 ft 3 kts 28°
2026-04-26 19:36 28.42475 -81.30088 102 ft 3 kts 28°
2026-04-26 19:36 28.42453 -81.30101 101 ft 3 kts
2026-04-26 19:36 28.42436 -81.30094 101 ft 3 kts 298°
2026-04-26 19:37 28.42433 -81.30089 101 ft 0 kts 278°
2026-04-26 19:39 28.42433 -81.30090 102 ft 1 kts 278°
2026-04-26 19:39 28.42434 -81.30098 101 ft 1 kts 278°
2026-04-26 19:39 28.42435 -81.30106 101 ft 1 kts 277°
2026-04-26 19:39 28.42436 -81.30114 102 ft 1 kts 277°
2026-04-26 19:40 28.42437 -81.30121 102 ft 1 kts 277°
2026-04-26 19:40 28.42437 -81.30123 102 ft 0 kts 277°
2026-04-26 19:40 28.42397 -81.30151 102 ft 16 kts 211°
2026-04-26 19:41 28.42355 -81.30319 101 ft 28 kts 267°
2026-04-26 19:41 28.42346 -81.30561 105 ft 33 kts 267°
2026-04-26 19:41 28.42327 -81.30798 103 ft 30 kts 264°
2026-04-26 19:41 28.42315 -81.30975 99 ft 35 kts 267°
2026-04-26 19:42 28.42349 -81.31356 99 ft 36 kts 271°
2026-04-26 19:42 28.42347 -81.31630 102 ft 33 kts 268°
2026-04-26 19:42 28.42345 -81.31836 106 ft 23 kts 270°
2026-04-26 19:42 28.42388 -81.31984 108 ft 20 kts 345°
2026-04-26 19:43 28.42527 -81.31989 108 ft 20 kts 360°
2026-04-26 19:43 28.42663 -81.31990 107 ft 19 kts
2026-04-26 19:43 28.42793 -81.31990 104 ft 19 kts 358°
2026-04-26 19:43 28.42939 -81.31992 101 ft 22 kts 360°
2026-04-26 19:44 28.43101 -81.31992 101 ft 24 kts
2026-04-26 19:44 28.43276 -81.31992 99 ft 26 kts 359°
2026-04-26 19:44 28.43459 -81.31997 102 ft 26 kts 359°
2026-04-26 19:44 28.43630 -81.32000 105 ft 24 kts
2026-04-26 19:45 28.43792 -81.31997 107 ft 23 kts 358°
2026-04-26 19:45 28.43948 -81.32002 110 ft 22 kts 358°
2026-04-26 19:45 28.44102 -81.32004 109 ft 23 kts 360°
2026-04-26 19:45 28.44270 -81.32007 107 ft 25 kts 358°
2026-04-26 19:46 28.44454 -81.32010 104 ft 28 kts
2026-04-26 19:46 28.44656 -81.32010 101 ft 29 kts 358°
2026-04-26 19:46 28.44714 -81.32148 102 ft 21 kts 269°
2026-04-26 19:46 28.44647 -81.32219 103 ft 0 kts 184°
2026-04-26 19:47 28.44601 -81.32222 103 ft 32 kts 183°
2026-04-26 19:47 28.44309 -81.32227 107 ft 91 kts 179°
2026-04-26 19:47 28.43045 -81.32183 312 ft 166 kts 178°
2026-04-26 19:47 28.41918 -81.32140 1358 ft 163 kts 178°
2026-04-26 19:48 28.40715 -81.31951 2014 ft 191 kts 178°
2026-04-26 19:48 28.39269 -81.31960 2389 ft 224 kts 189°
2026-04-26 19:48 28.37654 -81.32160 2787 ft 239 kts 190°
2026-04-26 19:48 28.35966 -81.32330 3368 ft 244 kts 187°
2026-04-26 19:49 28.34247 -81.32616 3707 ft 263 kts 201°
2026-04-26 19:49 28.32512 -81.33367 4392 ft 270 kts 205°
2026-04-26 19:49 28.30752 -81.34152 5290 ft 271 kts 205°
2026-04-26 19:49 28.28992 -81.34925 6204 ft 272 kts 204°
2026-04-26 19:50 28.27208 -81.35697 6958 ft 276 kts 204°
2026-04-26 19:50 28.25394 -81.36473 7739 ft 280 kts 203°
2026-04-26 19:50 28.23559 -81.37249 8530 ft 283 kts 202°
2026-04-26 19:50 28.21696 -81.38032 9309 ft 287 kts 203°
2026-04-26 19:51 28.19813 -81.38819 10088 ft 289 kts 203°
2026-04-26 19:51 28.17881 -81.39627 10494 ft 307 kts 202°
2026-04-26 19:51 28.15796 -81.40498 10664 ft 331 kts 203°
2026-04-26 19:51 28.13564 -81.41429 10890 ft 351 kts 202°
2026-04-26 19:52 28.11265 -81.42384 11401 ft 360 kts 202°
2026-04-26 19:52 28.08889 -81.43367 12114 ft 364 kts 202°
2026-04-26 19:52 28.06496 -81.44357 12776 ft 369 kts 203°
2026-04-26 19:52 28.04061 -81.45365 13379 ft 374 kts 203°
2026-04-26 19:53 28.01593 -81.46387 13970 ft 379 kts 203°
2026-04-26 19:53 27.99140 -81.47402 14569 ft 381 kts 203°
2026-04-26 19:53 27.96639 -81.48437 15169 ft 383 kts 203°
2026-04-26 19:53 27.94119 -81.49479 15774 ft 386 kts 203°
2026-04-26 19:54 27.91644 -81.50683 16363 ft 387 kts 211°
2026-04-26 19:54 27.89402 -81.52357 16948 ft 386 kts 220°
2026-04-26 19:54 27.87266 -81.54211 17533 ft 389 kts 221°
2026-04-26 19:54 27.85141 -81.56076 18087 ft 392 kts 220°
2026-04-26 19:55 27.82969 -81.57973 18604 ft 395 kts 220°
2026-04-26 19:55 27.80777 -81.59869 19099 ft 397 kts 220°
2026-04-26 19:55 27.78567 -81.61768 19596 ft 400 kts 220°
2026-04-26 19:55 27.76338 -81.63676 20085 ft 403 kts 220°
2026-04-26 19:56 27.74097 -81.65590 20569 ft 405 kts 220°
2026-04-26 19:56 27.71837 -81.67520 21098 ft 407 kts 220°
2026-04-26 19:56 27.69602 -81.69422 21590 ft 409 kts 219°
2026-04-26 19:56 27.67246 -81.71250 22050 ft 413 kts 216°
2026-04-26 19:57 27.64817 -81.73016 22493 ft 416 kts 215°
2026-04-26 19:57 27.62372 -81.74786 22935 ft 419 kts 214°
2026-04-26 19:57 27.59717 -81.76220 23337 ft 428 kts 199°
2026-04-26 19:57 27.56764 -81.76798 23736 ft 435 kts 184°
2026-04-26 19:58 27.53719 -81.76493 24120 ft 441 kts 171°
2026-04-26 19:58 27.50702 -81.75797 24495 ft 444 kts 171°
2026-04-26 19:58 27.47700 -81.75069 24809 ft 448 kts 170°
2026-04-26 19:58 27.44644 -81.74330 25146 ft 450 kts 171°
2026-04-26 19:59 27.41566 -81.73603 25490 ft 453 kts 171°
2026-04-26 19:59 27.38466 -81.72888 25834 ft 455 kts 171°
2026-04-26 19:59 27.35353 -81.72183 26165 ft 457 kts 171°
2026-04-26 19:59 27.32222 -81.71482 26490 ft 460 kts 172°
2026-04-26 20:00 27.29069 -81.70778 26797 ft 463 kts 172°
2026-04-26 20:00 27.25901 -81.70072 27103 ft 465 kts 172°
2026-04-26 20:00 27.22706 -81.69359 27413 ft 467 kts 172°
2026-04-26 20:00 27.20594 -81.68887 27609 ft 469 kts 172°
2026-04-26 20:01 27.17386 -81.68171 27904 ft 471 kts 172°
2026-04-26 20:01 27.13107 -81.67216 28292 ft 474 kts 172°
2026-04-26 20:01 27.09859 -81.66491 28588 ft 476 kts 172°
2026-04-26 20:01 27.06590 -81.65762 28861 ft 478 kts 172°
2026-04-26 20:02 27.04425 -81.65281 29097 ft 478 kts 172°
2026-04-26 20:02 27.01159 -81.64574 29536 ft 477 kts 172°
2026-04-26 20:02 26.97903 -81.63885 29926 ft 476 kts 172°
2026-04-26 20:02 26.95698 -81.63423 30152 ft 476 kts 172°
2026-04-26 20:03 26.91364 -81.62517 30573 ft 476 kts 172°
2026-04-26 20:03 26.88113 -81.61836 30900 ft 475 kts 172°
2026-04-26 20:03 26.84847 -81.61151 31196 ft 476 kts 172°
2026-04-26 20:03 26.81634 -81.60475 31486 ft 476 kts 172°
2026-04-26 20:04 26.78375 -81.59789 31796 ft 476 kts 172°
2026-04-26 20:04 26.75123 -81.59103 32097 ft 476 kts 172°
2026-04-26 20:04 26.71867 -81.58418 32387 ft 476 kts 172°
2026-04-26 20:04 26.68604 -81.57731 32671 ft 476 kts 172°
2026-04-26 20:05 26.65342 -81.57046 32955 ft 476 kts 172°
2026-04-26 20:05 26.62066 -81.56358 32939 ft 480 kts 172°
2026-04-26 20:05 26.55522 -81.54984 32947 ft 480 kts 172°
2026-04-26 20:06 26.48969 -81.53609 32950 ft 477 kts 172°
2026-04-26 20:06 26.42451 -81.52243 32958 ft 475 kts 172°
2026-04-26 20:07 26.35952 -81.50884 32958 ft 474 kts 172°
2026-04-26 20:07 26.29502 -81.49537 32933 ft 475 kts 173°
2026-04-26 20:08 26.22991 -81.48178 32974 ft 478 kts 173°
2026-04-26 20:08 26.16379 -81.46800 33208 ft 486 kts 173°
2026-04-26 20:09 26.13032 -81.46277 33465 ft 483 kts 181°
2026-04-26 20:09 26.09689 -81.46324 33792 ft 477 kts 189°
2026-04-26 20:09 26.06426 -81.46875 33953 ft 473 kts 198°
2026-04-26 20:09 26.03295 -81.47837 33968 ft 473 kts 200°
2026-04-26 20:10 25.96995 -81.49901 33954 ft 469 kts 201°
2026-04-26 20:10 25.90726 -81.51928 33955 ft 468 kts 201°
2026-04-26 20:11 25.84477 -81.53903 33962 ft 467 kts 201°
2026-04-26 20:12 25.75101 -81.56832 33960 ft 466 kts 201°
2026-04-26 20:12 25.68843 -81.58784 33942 ft 467 kts 201°
2026-04-26 20:13 25.62626 -81.60723 33959 ft 467 kts 201°
2026-04-26 20:13 25.56353 -81.62677 33958 ft 468 kts 201°
2026-04-26 20:14 25.50060 -81.64636 33958 ft 470 kts 201°
2026-04-26 20:14 25.43749 -81.66597 33948 ft 471 kts 201°
2026-04-26 20:15 25.37471 -81.68547 33948 ft 472 kts 201°
2026-04-26 20:15 25.31135 -81.70512 33961 ft 473 kts 201°
2026-04-26 20:16 25.24779 -81.72481 33957 ft 474 kts 201°
2026-04-26 20:16 25.18417 -81.74450 33957 ft 475 kts 201°
2026-04-26 20:17 25.12079 -81.76409 33955 ft 475 kts 201°
2026-04-26 20:17 25.05714 -81.78374 33948 ft 475 kts 201°
2026-04-26 20:18 24.99345 -81.80338 33951 ft 474 kts 201°
2026-04-26 20:18 24.92985 -81.82298 33958 ft 474 kts 201°
2026-04-26 20:19 24.86639 -81.84251 33962 ft 474 kts 201°
2026-04-26 20:19 24.80319 -81.86195 33962 ft 473 kts 201°
2026-04-26 20:20 24.73969 -81.88145 33954 ft 472 kts 201°
2026-04-26 20:20 24.67676 -81.90077 33964 ft 471 kts 201°
2026-04-26 20:21 24.61362 -81.92013 33966 ft 471 kts 201°
2026-04-26 20:21 24.55051 -81.93946 33959 ft 470 kts 201°
2026-04-26 20:22 24.49150 -81.96668 33969 ft 449 kts 225°
2026-04-26 20:22 24.46971 -81.99049 33960 ft 437 kts 239°
2026-04-26 20:22 24.45410 -82.01861 33966 ft 427 kts 250°
2026-04-26 20:23 24.42888 -82.07770 33953 ft 428 kts 250°
2026-04-26 20:23 24.40366 -82.13695 33958 ft 429 kts 250°
2026-04-26 20:24 24.37810 -82.19589 33957 ft 431 kts 250°
2026-04-26 20:24 24.35209 -82.25524 33955 ft 432 kts 250°
2026-04-26 20:25 24.32587 -82.31487 33955 ft 433 kts 249°
2026-04-26 20:25 24.29978 -82.37412 33953 ft 434 kts 249°
2026-04-26 20:26 24.27353 -82.43367 33937 ft 434 kts 250°
2026-04-26 20:26 24.24721 -82.49333 33950 ft 434 kts 250°
2026-04-26 20:27 24.22103 -82.55258 33954 ft 434 kts 250°
2026-04-26 20:27 24.19468 -82.61217 33934 ft 434 kts 249°
2026-04-26 20:28 24.16838 -82.67154 33949 ft 433 kts 249°
2026-04-26 20:28 24.14205 -82.73091 33951 ft 433 kts 249°
2026-04-26 20:29 24.11567 -82.79031 33933 ft 433 kts 249°
2026-04-26 20:29 24.08949 -82.84920 33945 ft 432 kts 249°
2026-04-26 20:30 24.06315 -82.90839 33949 ft 432 kts 249°
2026-04-26 20:30 24.03679 -82.96754 33948 ft 431 kts 249°
2026-04-26 20:31 24.01044 -83.02661 33954 ft 431 kts 249°
2026-04-26 20:31 23.97905 -83.08260 33959 ft 438 kts 239°
2026-04-26 20:32 23.94223 -83.13587 33943 ft 439 kts 239°
2026-04-26 20:32 23.90554 -83.18909 33931 ft 438 kts 239°
2026-04-26 20:33 23.86927 -83.24217 33939 ft 437 kts 239°
2026-04-26 20:33 23.83286 -83.29561 33948 ft 437 kts 239°
2026-04-26 20:34 23.79645 -83.34903 33942 ft 437 kts 239°
2026-04-26 20:34 23.76022 -83.40209 33944 ft 438 kts 239°
2026-04-26 20:35 23.72375 -83.45545 33947 ft 438 kts 239°
2026-04-26 20:35 23.68752 -83.50841 33951 ft 438 kts 239°
2026-04-26 20:36 23.65096 -83.56179 33929 ft 438 kts 239°
2026-04-26 20:36 23.61442 -83.61506 33923 ft 438 kts 239°
2026-04-26 20:37 23.57781 -83.66832 33944 ft 438 kts 239°
2026-04-26 20:37 23.54141 -83.72123 33943 ft 439 kts 239°
2026-04-26 20:38 23.50471 -83.77455 33943 ft 439 kts 239°
2026-04-26 20:38 23.46799 -83.82783 33939 ft 439 kts 239°
2026-04-26 20:39 23.43126 -83.88108 33937 ft 440 kts 239°
2026-04-26 20:39 23.39446 -83.93438 33929 ft 440 kts 239°
2026-04-26 20:40 23.35782 -83.98737 33934 ft 440 kts 239°
2026-04-26 20:40 23.32097 -84.04064 33939 ft 440 kts 239°
2026-04-26 20:41 23.28413 -84.09383 33934 ft 440 kts 239°
2026-04-26 20:41 23.24719 -84.14710 33935 ft 441 kts 239°
2026-04-26 20:42 23.21027 -84.20029 33937 ft 441 kts 239°
2026-04-26 20:42 23.17324 -84.25359 33937 ft 441 kts 239°
2026-04-26 20:43 23.13643 -84.30652 33924 ft 442 kts 238°
2026-04-26 20:43 23.09932 -84.35982 33934 ft 442 kts 238°
2026-04-26 20:44 23.06220 -84.41309 33940 ft 442 kts 238°
2026-04-26 20:44 23.02498 -84.46645 33937 ft 443 kts 238°
2026-04-26 20:45 22.98774 -84.51980 33926 ft 443 kts 238°
2026-04-26 20:45 22.95046 -84.57309 33934 ft 443 kts 238°
2026-04-26 20:46 22.91340 -84.62602 33934 ft 443 kts 238°
2026-04-26 20:46 22.87603 -84.67935 33931 ft 443 kts 238°
2026-04-26 20:47 22.83868 -84.73261 33934 ft 444 kts 238°
2026-04-26 20:47 22.80128 -84.78589 33934 ft 444 kts 238°
2026-04-26 20:48 22.76388 -84.83912 33937 ft 444 kts 238°
2026-04-26 20:48 22.73271 -84.88344 33937 ft 444 kts 238°
2026-04-26 20:49 22.68911 -84.94538 33921 ft 444 kts 238°
2026-04-26 20:49 22.65771 -84.98994 33932 ft 444 kts 238°
2026-04-26 20:50 22.62041 -85.04284 33934 ft 444 kts 238°
2026-04-26 20:50 22.58292 -85.09622 33934 ft 444 kts 238°
2026-04-26 20:51 22.54571 -85.14973 33932 ft 445 kts 238°
2026-04-26 20:51 22.50869 -85.20298 33932 ft 445 kts 238°
2026-04-26 20:52 22.47143 -85.25645 33937 ft 445 kts 238°
2026-04-26 20:52 22.43406 -85.30999 33933 ft 446 kts 238°
2026-04-26 20:52 22.41529 -85.33688 33480 ft 451 kts 238°
2026-04-26 20:53 22.39645 -85.36383 33099 ft 445 kts 238°
2026-04-26 20:53 22.37776 -85.39052 32599 ft 442 kts 237°
2026-04-26 20:53 22.35953 -85.41657 32163 ft 438 kts 238°
2026-04-26 20:53 22.34121 -85.44272 31708 ft 435 kts 238°
2026-04-26 20:54 22.32301 -85.46872 31276 ft 432 kts 238°
2026-04-26 20:54 22.30492 -85.49456 30840 ft 429 kts 238°
2026-04-26 20:54 22.28695 -85.52022 30389 ft 427 kts 238°
2026-04-26 20:54 22.26904 -85.54578 29936 ft 425 kts 238°
2026-04-26 20:55 22.25118 -85.57124 29424 ft 423 kts 238°
2026-04-26 20:55 22.23367 -85.59618 28930 ft 421 kts 238°
2026-04-26 20:55 22.21600 -85.62140 28414 ft 419 kts 238°
2026-04-26 20:55 22.19852 -85.64637 27962 ft 416 kts 238°
2026-04-26 20:56 22.18115 -85.67118 27517 ft 413 kts 238°
2026-04-26 20:56 22.16386 -85.69587 27078 ft 410 kts 238°
2026-04-26 20:56 22.14670 -85.72035 26647 ft 408 kts 238°
2026-04-26 20:56 22.12965 -85.74469 26217 ft 405 kts 238°
2026-04-26 20:57 22.11270 -85.76887 25788 ft 403 kts 238°
2026-04-26 20:57 22.09580 -85.79297 25359 ft 402 kts 238°
2026-04-26 20:57 22.07894 -85.81699 24920 ft 401 kts 238°
2026-04-26 20:57 22.06216 -85.84090 24479 ft 400 kts 238°
2026-04-26 20:58 22.04559 -85.86450 24061 ft 399 kts 238°
2026-04-26 20:58 22.02883 -85.88834 23632 ft 398 kts 238°
2026-04-26 20:58 22.01211 -85.91215 23142 ft 398 kts 237°
2026-04-26 20:58 21.99538 -85.93594 22703 ft 395 kts 237°
2026-04-26 20:59 21.97881 -85.95948 22274 ft 393 kts 237°
2026-04-26 20:59 21.96233 -85.98248 21956 ft 390 kts 233°
2026-04-26 20:59 21.94317 -86.00298 21938 ft 387 kts 226°
2026-04-26 20:59 21.92301 -86.02169 21916 ft 377 kts 224°
2026-04-26 21:00 21.90317 -86.03956 21906 ft 365 kts 224°
2026-04-26 21:00 21.88404 -86.05687 21905 ft 352 kts 225°
2026-04-26 21:00 21.86768 -86.07533 21909 ft 331 kts 240°
2026-04-26 21:00 21.85557 -86.09589 21636 ft 325 kts 244°
2026-04-26 21:01 21.84373 -86.11747 20620 ft 346 kts 244°
2026-04-26 21:01 21.83131 -86.14042 19516 ft 371 kts 243°
2026-04-26 21:01 21.81809 -86.16471 18897 ft 378 kts 243°
2026-04-26 21:01 21.80473 -86.18901 18559 ft 375 kts 243°
2026-04-26 21:02 21.79151 -86.21292 18256 ft 370 kts 243°
2026-04-26 21:02 21.77831 -86.23671 17847 ft 368 kts 242°
2026-04-26 21:02 21.76522 -86.26028 17434 ft 366 kts 242°
2026-04-26 21:02 21.75219 -86.28374 17028 ft 364 kts 242°
2026-04-26 21:03 21.73922 -86.30706 16608 ft 362 kts 242°
2026-04-26 21:03 21.72632 -86.33026 16221 ft 360 kts 242°
2026-04-26 21:03 21.71362 -86.35309 15864 ft 357 kts 242°
2026-04-26 21:03 21.70086 -86.37600 15491 ft 355 kts 242°
2026-04-26 21:04 21.68819 -86.39877 15133 ft 353 kts 242°
2026-04-26 21:04 21.67558 -86.42139 14760 ft 351 kts 242°
2026-04-26 21:04 21.66318 -86.44365 14403 ft 349 kts 242°
2026-04-26 21:04 21.65070 -86.46604 14052 ft 347 kts 242°
2026-04-26 21:05 21.63830 -86.48828 13707 ft 345 kts 242°
2026-04-26 21:05 21.62596 -86.51039 13327 ft 343 kts 242°
2026-04-26 21:05 21.61374 -86.53229 12946 ft 341 kts 242°
2026-04-26 21:05 21.60170 -86.55386 12566 ft 339 kts 242°
2026-04-26 21:06 21.58964 -86.57554 12172 ft 337 kts 241°
2026-04-26 21:06 21.57754 -86.59717 11782 ft 336 kts 242°
2026-04-26 21:06 21.56562 -86.61846 11643 ft 327 kts 241°
2026-04-26 21:06 21.55406 -86.63908 11564 ft 316 kts 242°
2026-04-26 21:07 21.54288 -86.65902 11489 ft 306 kts 242°
2026-04-26 21:07 21.53225 -86.67800 11362 ft 295 kts 242°
2026-04-26 21:07 21.52178 -86.69669 11021 ft 289 kts 242°
2026-04-26 21:07 21.51141 -86.71521 10606 ft 287 kts 242°
2026-04-26 21:08 21.50115 -86.73354 10189 ft 285 kts 241°
2026-04-26 21:08 21.49096 -86.75175 9783 ft 283 kts 241°
2026-04-26 21:08 21.48098 -86.76955 9339 ft 281 kts 242°
2026-04-26 21:08 21.47092 -86.78752 8898 ft 279 kts 241°
2026-04-26 21:09 21.46094 -86.80532 8474 ft 277 kts 240°
2026-04-26 21:09 21.45093 -86.82315 8106 ft 279 kts 239°
2026-04-26 21:09 21.44097 -86.84091 7872 ft 274 kts 240°
2026-04-26 21:09 21.43119 -86.85833 7488 ft 272 kts 239°
2026-04-26 21:10 21.42154 -86.87551 7043 ft 272 kts 239°
2026-04-26 21:10 21.41177 -86.89290 6635 ft 270 kts 238°
2026-04-26 21:10 21.40209 -86.91013 6230 ft 269 kts 238°
2026-04-26 21:10 21.39246 -86.92726 5862 ft 266 kts 238°
2026-04-26 21:11 21.38292 -86.94422 5572 ft 265 kts 238°
2026-04-26 21:11 21.37341 -86.96113 5281 ft 264 kts 238°
2026-04-26 21:11 21.36392 -86.97800 5000 ft 263 kts 238°
2026-04-26 21:11 21.35448 -86.99477 4719 ft 262 kts 238°
2026-04-26 21:12 21.34518 -87.01130 4437 ft 261 kts 237°
2026-04-26 21:12 21.33581 -87.02794 4154 ft 260 kts 238°
2026-04-26 21:12 21.32650 -87.04449 3883 ft 259 kts 237°
2026-04-26 21:12 21.31718 -87.06101 3600 ft 258 kts 237°
2026-04-26 21:13 21.30788 -87.07750 3334 ft 257 kts 236°
2026-04-26 21:13 21.29861 -87.09381 3072 ft 256 kts 232°
2026-04-26 21:13 21.28592 -87.10696 2986 ft 254 kts 208°
2026-04-26 21:13 21.27130 -87.11698 2957 ft 249 kts 210°
2026-04-26 21:14 21.25717 -87.12688 2955 ft 236 kts 211°
2026-04-26 21:14 21.24360 -87.13602 2937 ft 223 kts 201°
2026-04-26 21:14 21.22915 -87.13846 2951 ft 203 kts 169°
2026-04-26 21:14 21.21614 -87.13352 2970 ft 196 kts 148°
2026-04-26 21:15 21.20649 -87.12326 2986 ft 199 kts 126°
2026-04-26 21:15 21.19843 -87.11101 2972 ft 201 kts 127°
2026-04-26 21:15 21.19043 -87.09887 2962 ft 198 kts 126°
2026-04-26 21:15 21.18279 -87.08688 2951 ft 197 kts 126°
2026-04-26 21:16 21.17514 -87.07470 2965 ft 197 kts 126°
2026-04-26 21:16 21.16745 -87.06238 2953 ft 201 kts 125°
2026-04-26 21:16 21.15968 -87.04992 2957 ft 198 kts 126°
2026-04-26 21:16 21.15217 -87.03785 2951 ft 192 kts 126°
2026-04-26 21:17 21.14478 -87.02599 2955 ft 189 kts 125°
2026-04-26 21:17 21.13752 -87.01433 2809 ft 186 kts 125°
2026-04-26 21:17 21.13032 -87.00278 2581 ft 185 kts 125°
2026-04-26 21:17 21.12335 -86.99159 2358 ft 180 kts 126°
2026-04-26 21:18 21.11650 -86.98059 2125 ft 174 kts 124°
2026-04-26 21:18 21.10989 -86.97000 1896 ft 167 kts 124°
2026-04-26 21:18 21.10360 -86.95991 1687 ft 158 kts 124°
2026-04-26 21:18 21.09770 -86.95042 1487 ft 150 kts 124°
2026-04-26 21:19 21.09199 -86.94124 1331 ft 150 kts 124°
2026-04-26 21:19 21.08621 -86.93198 1116 ft 146 kts 123°
2026-04-26 21:19 21.08065 -86.92304 933 ft 144 kts 123°
2026-04-26 21:19 21.07515 -86.91421 795 ft 140 kts 123°
2026-04-26 21:20 21.06997 -86.90588 599 ft 133 kts 122°
2026-04-26 21:20 21.06493 -86.89777 427 ft 131 kts 123°
2026-04-26 21:20 21.05980 -86.88949 264 ft 134 kts 124°
2026-04-26 21:20 21.05465 -86.88117 65 ft 134 kts 125°
2026-04-26 21:21 21.04979 -86.87353 37 ft 107 kts 124°
2026-04-26 21:21 21.04616 -86.86768 36 ft 66 kts 124°
2026-04-26 21:21 21.04420 -86.86472 38 ft 39 kts 136°
2026-04-26 21:21 21.04257 -86.86366 40 ft 15 kts 154°
2026-04-26 21:22 21.04186 -86.86329 41 ft 0 kts 155°
2026-04-26 21:22 21.04162 -86.86360 41 ft 12 kts 276°
2026-04-26 21:23 21.04311 -86.86602 42 ft 22 kts 303°
2026-04-26 21:23 21.04393 -86.86742 42 ft 22 kts 302°
2026-04-26 21:23 21.04475 -86.86876 41 ft 21 kts 304°
2026-04-26 21:23 21.04560 -86.87012 41 ft 23 kts 303°
2026-04-26 21:24 21.04651 -86.87157 41 ft 24 kts 304°
2026-04-26 21:24 21.04687 -86.87215 41 ft 8 kts 303°
2026-04-26 21:24 21.04771 -86.87349 41 ft 35 kts 303°
2026-04-26 21:24 21.04943 -86.87627 41 ft 50 kts 304°
2026-04-26 21:25 21.05124 -86.87909 41 ft 40 kts 304°
2026-04-26 21:25 21.05222 -86.88072 41 ft 14 kts 283°
2026-04-26 21:25 21.05166 -86.88147 42 ft 13 kts 216°
2026-04-26 21:25 21.05090 -86.88202 42 ft 13 kts 212°
2026-04-26 21:26 21.05015 -86.88251 42 ft 13 kts 211°
2026-04-26 21:26 21.04943 -86.88287 42 ft 10 kts 167°
2026-04-26 21:26 21.04895 -86.88238 42 ft 10 kts 125°
2026-04-26 21:26 21.04883 -86.88220 42 ft 0 kts 124°